Milwaukee, WI

7:07 AM CDT on October 15, 2019 (GMT -0500)
Gen Mitchell International

Weather History for KMKE - September, 2019

Change the Weather History Date:

Friday, September 20, 2019

  Actual Average Record
Temperature  
Mean Temperature 72 °F 61 °F  
Max Temperature 79 °F 70 °F 92 °F (1891)
Min Temperature 64 °F 53 °F 30 °F (1956)
Degree Days  
Heating Degree Days 0 5  
Month to date heating degree days 8 56  
Since 1 July heating degree days 10 82  
Cooling Degree Days 6 2  
Month to date cooling degree days 80 60  
Year to date cooling degree days 686 625  
Growing Degree Days 22 (Base 50)    
Moisture  
Dew Point 63 °F    
Average Humidity 75    
Maximum Humidity 90    
Minimum Humidity 58    
Precipitation  
Precipitation 0.00 in 0.12 in 3.40 in (1923)
Month to date precipitation 5.06 2.12  
Year to date precipitation 33.47 26.30  
Snow  
Snow 0.00 in 0.00 in T in (1954)
Month to date snowfall 0.0 0.0  
Since 1 July snowfall 0.0 0.0  
Since 1 September snowfall 0.0 0.0  
Snow Depth 0.00 in    
Sea Level Pressure  
Sea Level Pressure 30.10 in    
Wind  
Wind Speed 3 mph ()    
Max Wind Speed 12 mph    
Max Gust Speed 15 mph    
Visibility 8.5 miles    
Events      
T = Trace of Precipitation, MM = Missing Value Source: Averaged Metar Reports

Daily Weather History Graph

Daily Weather History Graph

Search for Another Location

Airport or City:

Astronomy

Sep. 20, 2019 Rise Set
Actual Time 6:36 AM CDT 6:52 PM CDT
Civil Twilight 6:08 AM CDT 7:21 PM CDT
Nautical Twilight 5:34 AM CDT 7:54 PM CDT
Astronomical Twilight 5:00 AM CDT 8:28 PM CDT
Moon 10:33 PM CDT (9/20) 12:49 PM CDT (9/20)
Length of Visible Light 13h 13m
Length of Day
12h 16m
Waning Gibbous, 65% of the Moon is Illuminated
Sep 20
Waning Gibbous
Sep 21
Last Quarter
Sep 28
New
Oct 5
First Quarter
Oct 13
Full

Hourly Weather History & Observations

Time (CDT) Temp. Dew Point Humidity Pressure Visibility Wind Dir Wind Speed Gust Speed Precip Events Conditions
12:52 AM 68.0 °F 62.1 °F 81% 30.07 in 10.0 mi SSW 3.5 mph - N/A   Scattered Clouds
2:52 AM 66.0 °F 61.0 °F 84% 30.08 in 10.0 mi Calm Calm - N/A   Scattered Clouds
3:52 AM 66.0 °F 59.0 °F 78% 30.08 in 10.0 mi Calm Calm - N/A   Scattered Clouds
4:52 AM 64.0 °F 59.0 °F 84% 30.09 in 10.0 mi Calm Calm - N/A   Scattered Clouds
5:52 AM 64.0 °F 59.0 °F 84% 30.10 in 10.0 mi Calm Calm - N/A   Partly Cloudy
6:52 AM 66.0 °F 60.1 °F 81% 30.10 in 10.0 mi Calm Calm - N/A   Partly Cloudy
7:52 AM 68.0 °F 62.1 °F 81% 30.12 in 9.0 mi Calm Calm - N/A   Mostly Cloudy
8:52 AM 71.1 °F 64.0 °F 78% 30.13 in 7.0 mi Calm Calm - N/A   Mostly Cloudy
9:52 AM 75.0 °F 64.0 °F 69% 30.13 in 10.0 mi Calm Calm - N/A   Mostly Cloudy
10:52 AM 75.9 °F 64.0 °F 67% 30.13 in 10.0 mi East 4.6 mph - N/A   Mostly Cloudy
11:52 AM 77.0 °F 63.0 °F 62% 30.11 in 10.0 mi ESE 4.6 mph - N/A   Mostly Cloudy
12:52 PM 79.0 °F 64.0 °F 60% 30.11 in 10.0 mi East 6.9 mph - N/A   Mostly Cloudy
1:52 PM 79.0 °F 63.0 °F 58% 30.09 in 10.0 mi ESE 6.9 mph - N/A   Mostly Cloudy
2:52 PM 78.1 °F 64.9 °F 64% 30.08 in 10.0 mi SE 10.4 mph - N/A   Mostly Cloudy
3:52 PM 75.9 °F 64.0 °F 67% 30.08 in 10.0 mi ESE 9.2 mph - N/A   Mostly Cloudy
4:52 PM 77.0 °F 64.0 °F 64% 30.09 in 10.0 mi SSE 6.9 mph - N/A   Overcast
5:52 PM 73.9 °F 64.9 °F 73% 30.09 in 10.0 mi SE 6.9 mph - N/A   Mostly Cloudy
6:52 PM 73.0 °F 64.9 °F 76% 30.09 in 9.0 mi ESE 5.8 mph - N/A   Mostly Cloudy
7:52 PM 71.1 °F 66.0 °F 84% 30.09 in 6.0 mi SSE 5.8 mph - N/A   Haze
8:52 PM 71.1 °F 64.9 °F 81% 30.09 in 5.0 mi SSE 3.5 mph - N/A   Haze
9:52 PM 70.0 °F 64.9 °F 84% 30.10 in 4.0 mi SSE 4.6 mph - N/A   Haze
10:52 PM 70.0 °F 66.0 °F 87% 30.10 in 3.0 mi SSE 5.8 mph - N/A   Partly Cloudy
11:52 PM 70.0 °F 64.9 °F 84% 30.08 in 3.0 mi SSE 4.6 mph - N/A   Haze